CW9127 Weather Reports


time (UTC)temp
C
wind
direction
speed
KPH
gust
KPH
rain 1hr
cm
rain 24hr
cm
rain mn
cm
humidity
%
barometer
mb
20260906070337 24 68 12.9 27.4 0.13 0.13 0.13 84 1015.1
20260906065316 25 68 16.1 27.4 0.00 0.00 0.00 82 1015.2
20260906064337 25 68 12.9 19.3 0.00 0.00 0.00 83 1015.4
20260906063316 24 45 8.0 14.5 0.00 0.00 0.00 84 1015.0
20260906062317 24 68 6.4 9.7 0.00 0.00 0.00 85 1014.7
20260906061337 24 0.0 3.2 0.00 0.00 0.00 85 1013.8
20260906060317 24 0.0 0.0 0.00 0.00 0.00 85 1013.7
20260906055316 24 0.0 0.0 0.00 0.00 0.00 85 1013.8
20260906054316 24 0.0 1.6 0.00 0.00 0.00 86 1013.8
20260906053336 23 90 4.8 6.4 0.00 0.00 0.00 88 1013.8
20260906052316 23 0.0 0.0 0.00 0.00 0.00 89 1013.2
20260906051316 23 0.0 0.0 0.00 0.00 0.00 88 1012.8
20260906050317 23 0.0 0.0 0.00 0.00 0.00 88 1012.7
20260906045316 23 0.0 0.0 0.00 0.00 0.00 88 1012.9
20260906044316 23 0.0 0.0 0.00 0.00 0.00 88 1013.0
20260906043316 23 0.0 0.0 0.00 0.00 0.00 89 1013.1
20260906042418 23 0.0 0.0 0.00 0.00 0.00 89 1013.3
20260906041316 23 0.0 0.0 0.00 0.00 0.00 88 1013.2
20260906040336 23 0.0 0.0 0.00 0.00 0.00 88 1013.4
20260906035316 23 0.0 0.0 0.00 0.00 0.00 88 1013.4
20260906034318 23 0.0 0.0 0.00 0.00 0.00 87 1013.5
20260906033318 23 0.0 0.0 0.00 0.00 0.00 87 1013.3
20260906032318 23 0.0 0.0 0.00 0.00 0.00 87 1013.1
20260906031318 23 0.0 0.0 0.00 0.00 0.00 86 1013.1
20260906030318 23 0.0 0.0 0.00 0.00 0.00 85 1012.9
20260906025318 24 0.0 0.0 0.00 0.00 0.00 85 1012.8
20260906024318 24 0.0 0.0 0.00 0.00 0.00 84 1013.0
20260906023317 24 0.0 0.0 0.00 0.00 0.00 84 1012.7
20260906022318 24 0.0 0.0 0.00 0.00 0.00 83 1012.5
20260906021318 25 0.0 0.0 0.00 0.00 0.00 82 1012.4
20260906020319 25 0.0 0.0 0.00 0.00 0.00 82 1012.2
20260906015317 25 0.0 0.0 0.00 0.00 0.00 81 1012.1
20260906014318 25 0.0 0.0 0.00 0.00 0.00 81 1011.9
20260906013317 25 0.0 0.0 0.00 0.00 0.00 82 1012.1
20260906012318 25 0.0 0.0 0.00 0.00 0.00 80 1012.2
20260906011317 25 0.0 0.0 0.00 0.00 0.00 78 1012.0
20260906010317 26 0.0 0.0 0.00 0.00 0.00 77 1011.7
20260906005317 26 0.0 0.0 0.00 0.00 0.00 77 1011.7
20260906004317 26 0.0 0.0 0.00 0.00 0.00 75 1011.6
20260906003338 26 0.0 0.0 0.00 0.00 0.00 74 1011.8
20260906002318 27 0.0 0.0 0.00 0.00 0.00 73 1011.6
20260906001337 27 0.0 0.0 0.00 0.00 0.00 70 1011.5
20260906000318 27 68 1.6 4.8 0.00 0.00 0.00 69 1011.5
20260905235318 27 68 3.2 4.8 0.00 0.00 0.00 68 1011.6
20260905234319 28 68 4.8 8.0 0.00 0.00 0.00 66 1011.9
20260905233317 29 90 12.9 27.4 0.00 0.00 0.00 61 1012.1
20260905232337 30 90 6.4 8.0 0.00 0.00 0.00 63 1012.0
20260905231317 30 0.0 6.4 0.00 0.00 0.00 58 1012.0
20260905230318 30 68 3.2 6.4 0.00 0.00 0.00 56 1012.0
20260905225317 31 68 12.9 22.5 0.00 0.00 0.00 51 1011.8
20260905224317 31 68 17.7 24.1 0.00 0.00 0.00 51 1011.6
20260905223318 36 45 4.8 8.0 0.00 0.00 0.00 50 1011.7
20260905222317 35 0 3.2 6.4 0.00 0.00 0.00 49 1011.6
20260905221357 35 68 4.8 8.0 0.00 0.00 0.00 49 1011.4
20260905220340 35 0.0 0.0 0.00 0.00 0.00 53 1011.5
20260905215337 34 0.0 0.0 0.00 0.00 0.00 54 1011.5
20260905214317 34 68 1.6 6.4 0.00 0.00 0.00 54 1011.7
20260905213317 35 0.0 0.0 0.00 0.00 0.00 54 1011.7
20260905212317 35 0.0 0.0 0.00 0.00 0.00 51 1011.7
20260905211337 35 68 3.2 4.8 0.00 0.00 0.00 51 1011.8
20260905210317 36 45 3.2 6.4 0.00 0.00 0.00 48 1011.8
20260905205337 35 0.0 0.0 0.00 0.00 0.00 50 1011.7
20260905204317 35 68 1.6 4.8 0.00 0.00 0.00 52 1011.9
20260905203316 36 45 4.8 6.4 0.00 0.00 0.00 48 1012.0
20260905202317 36 0.0 3.2 0.00 0.00 0.00 48 1012.2
20260905201318 37 338 3.2 4.8 0.00 0.00 0.00 44 1012.4
20260905200317 36 0.0 4.8 0.00 0.00 0.00 46 1012.5
20260905195336 35 0.0 1.6 0.00 0.00 0.00 51 1012.7
20260905194317 35 0.0 1.6 0.00 0.00 0.00 52 1012.8
20260905193336 36 68 3.2 6.4 0.00 0.00 0.00 48 1012.9
20260905192316 36 45 3.2 4.8 0.00 0.00 0.00 48 1013.0
20260905191317 36 0 1.6 4.8 0.00 0.00 0.00 47 1013.1
20260905190316 36 293 3.2 4.8 0.00 0.00 0.00 46 1013.4
20260905185316 35 338 3.2 8.0 0.00 0.00 0.00 49 1013.6
20260905184320 35 315 1.6 3.2 0.00 0.00 0.00 49 1013.7
20260905183338 34 0.0 0.0 0.00 0.00 0.00 52 1014.0
20260905182316 33 0.0 1.6 0.00 0.00 0.00 54 1014.0
20260905181316 34 0 4.8 8.0 0.00 0.00 0.00 53 1014.2
20260905180317 35 68 4.8 8.0 0.00 0.00 0.00 52 1014.2
20260905175316 35 270 3.2 6.4 0.00 0.00 0.00 54 1014.3
20260905174337 33 0.0 1.6 0.00 0.00 0.00 56 1014.3
20260905173316 34 45 3.2 6.4 0.00 0.00 0.00 55 1014.2
20260905172316 34 68 3.2 6.4 0.00 0.00 0.00 56 1014.2
20260905171316 33 248 3.2 12.9 0.00 0.00 0.00 57 1014.3
20260905170316 33 90 6.4 11.3 0.00 0.00 0.00 57 1014.4
20260905165318 34 23 3.2 6.4 0.00 0.00 0.00 56 1014.7
20260905164316 33 0 1.6 4.8 0.00 0.00 0.00 56 1014.9
20260905163316 33 68 4.8 8.0 0.00 0.00 0.00 57 1015.0
20260905162316 33 0 3.2 8.0 0.00 0.00 0.00 58 1015.2
20260905161316 33 0.0 0.0 0.00 0.00 0.00 59 1015.3
20260905160338 33 23 3.2 6.4 0.00 0.00 0.00 57 1015.3
20260905155318 33 0.0 1.6 0.00 0.00 0.00 60 1015.4
20260905154318 32 0.0 1.6 0.00 0.00 0.00 62 1015.3
20260905153318 32 68 3.2 4.8 0.00 0.00 0.00 65 1015.3
20260905152318 32 293 1.6 6.4 0.00 0.00 0.00 66 1015.3
20260905151318 31 338 3.2 6.4 0.00 0.00 0.00 66 1015.3
20260905150318 31 270 1.6 3.2 0.00 0.00 0.00 70 1015.4
20260905145318 30 180 3.2 8.0 0.00 0.00 0.00 72 1015.4
20260905144318 30 0.0 3.2 0.00 0.00 0.00 72 1015.4
20260905143318 30 0.0 1.6 0.00 0.00 0.00 73 1015.5
20260905142318 28 0.0 0.0 0.00 0.00 0.00 80 1015.6
20260905141317 28 0.0 0.0 0.00 0.00 0.00 82 1015.6
20260905140319 27 0.0 0.0 0.00 0.00 0.00 84 1015.7
20260905135318 27 0.0 0.0 0.00 0.00 0.00 86 1015.7
20260905134317 26 0.0 0.0 0.00 0.00 0.00 86 1015.6
20260905133317 26 0.0 0.0 0.00 0.00 0.00 86 1015.7
20260905132318 26 0.0 0.0 0.00 0.00 0.00 87 1015.8
20260905131318 26 0.0 0.0 0.00 0.00 0.00 88 1015.8
20260905130317 25 0.0 0.0 0.00 0.00 0.00 92 1015.7
20260905125317 25 0.0 0.0 0.00 0.00 0.00 93 1015.7
20260905124318 24 0.0 0.0 0.00 0.00 0.00 95 1015.5
20260905123317 23 0.0 0.0 0.00 0.00 0.00 95 1015.5
20260905122317 23 0.0 0.0 0.00 0.00 0.00 95 1015.4
20260905121317 22 0.0 0.0 0.00 0.00 0.00 95 1015.1
20260905120317 22 0.0 0.0 0.00 0.00 0.00 95 1015.1
20260905115317 22 0.0 0.0 0.00 0.00 0.00 94 1015.1
20260905114317 22 0.0 0.0 0.00 0.00 0.00 94 1015.1
20260905113317 22 0.0 0.0 0.00 0.00 0.00 94 1015.0
20260905112317 22 0.0 0.0 0.00 0.00 0.00 94 1014.9
20260905111317 22 0.0 0.0 0.00 0.00 0.00 94 1014.7
20260905110317 22 0.0 0.0 0.00 0.00 0.00 94 1014.7
20260905105317 22 0.0 0.0 0.00 0.00 0.00 94 1014.6
20260905104338 22 0.0 0.0 0.00 0.00 0.00 94 1014.5
20260905103317 22 0.0 0.0 0.00 0.00 0.00 94 1014.5
20260905102318 22 0.0 0.0 0.00 0.00 0.00 94 1014.3
20260905101337 22 0.0 0.0 0.00 0.00 0.00 94 1014.2
20260905100338 22 0.0 0.0 0.00 0.00 0.00 93 1014.5
20260905095317 22 0.0 0.0 0.00 0.00 0.00 93 1014.6
20260905094317 22 0.0 0.0 0.00 0.00 0.00 93 1014.5
20260905093317 22 0.0 0.0 0.00 0.00 0.00 93 1014.5
20260905092317 22 0.0 0.0 0.00 0.00 0.00 93 1014.4
20260905091316 22 0.0 0.0 0.00 0.00 0.00 93 1014.3
20260905090317 22 0.0 0.0 0.00 0.00 0.00 93 1014.4
20260905085316 22 0.0 0.0 0.00 0.00 0.00 93 1014.4
20260905084317 22 0.0 0.0 0.00 0.00 0.00 93 1014.4
20260905083317 22 0.0 0.0 0.00 0.00 0.00 93 1014.3
20260905082317 22 0.0 0.0 0.00 0.00 0.00 93 1014.3
20260905081316 22 0.0 0.0 0.00 0.00 0.00 93 1014.4
20260905080319 22 0.0 0.0 0.00 0.00 0.00 93 1014.1
20260905075317 22 0.0 0.0 0.00 0.00 0.00 93 1014.1
20260905074317 22 0.0 0.0 0.00 0.00 0.00 93 1014.1
20260905073316 22 0.0 0.0 0.00 0.00 0.00 92 1014.1
20260905072316 22 0.0 0.0 0.00 0.00 0.00 92 1014.1
20260905071316 22 0.0 0.0 0.00 0.00 0.00 92 1014.0